Regional Weather Roundup
Issued by NWS Little Rock, AR

Home | Current Version | Previous Version | Text Only | Print | Product List | Glossary Off
Versions: 1 2 3 4 5 6 7 8 9 10 11 12 13 14 15 16 17 18 19 20 21 22 23 24 25 26 27 28 29 30 31 32 33 34 35 36 37 38 39 40 41 42 43 44 45 46 47 48 49 50

000
ASUS44 KLZK 201405
RWRLZK

WEATHER ROUNDUP FOR ARKANSAS
NATIONAL WEATHER SERVICE LITTLE ROCK AR
900 AM CDT THU JUL 20 2017

NOTE: "FAIR" INDICATES FEW OR NO CLOUDS BELOW 12,000 FEET WITH NO
SIGNIFICANT WEATHER AND/OR OBSTRUCTIONS TO VISIBILITY.

ARZ001-003-010-029-201500-
NORTHWEST ARKANSAS

CITY           SKY/WX    TMP DP  RH WIND       PRES   REMARKS
FAYETTEVILLE   SUNNY     83  78  85 S6        30.16S HX  93
FORT SMITH     SUNNY     84  79  85 E5        30.12S HX  96
HARRISON       SUNNY     85  74  69 SW7       30.16R HX  92
BENTONVILLE    SUNNY     82  73  74 SW6       30.17R HX  88
ROGERS         SUNNY     83  74  74 SW10      30.16S HX  89
SILOAM SPGS    SUNNY     82  73  74 SW9       30.15S HX  88
HIGHFILL       SUNNY     82  75  79 SW10      30.16R HX  89
SPRINGDALE     SUNNY     84  75  74 SW12      30.18R HX  92
$$

ARZ004-005-016-201500-
NORTH CENTRAL ARKANSAS

CITY           SKY/WX    TMP DP  RH WIND       PRES   REMARKS
BATESVILLE     SUNNY     84  75  74 SW3       30.13R HX  92
FLIPPIN        SUNNY     82  72  69 SW7       30.11S HX  87
MTN HOME       SUNNY     81  74  79 W5        30.14  HX  86
$$

ARZ040-041-201500-
WEST CENTRAL ARKANSAS

CITY           SKY/WX    TMP DP  RH WIND       PRES   REMARKS
MENA           SUNNY     82  82 100 CALM      30.16S HX  97
MOUNT IDA      SUNNY     84  76  76 CALM      30.12S HX  93
$$

ARZ009-017-025-026-028-201500-
NORTHEAST ARKANSAS

CITY           SKY/WX    TMP DP  RH WIND       PRES   REMARKS
CORNING        FAIR      84  79  84 SW7       30.12R HX  96
JONESBORO      SUNNY     87  77  72 W10       30.12R HX  99
WALNUT RIDGE   SUNNY     84  75  74 CALM      30.12R HX  92
BLYTHEVILLE    SUNNY     86  76  71 W7        30.12S HX  96
$$

ARZ022-023-033-042-044-201500-
CENTRAL ARKANSAS

CITY           SKY/WX    TMP DP  RH WIND       PRES   REMARKS
LITTLE ROCK    MOSUNNY   85  77  77 SW7       30.12S HX  95
N LITTLE ROCK    N/A     85  77  78 SW3       30.10F HX  96
JACKSONVILLE   SUNNY     87  78  76 W7        30.11S HX 100
CONWAY           N/A     86  77  74 CALM      30.10S HX  97
SEARCY         SUNNY     85  79  82 VRB3      30.13S HX  98
HOT SPRINGS    SUNNY     84  77  79 W3        30.13S HX  94
RUSSELLVILLE   SUNNY     83  76  79 CALM      30.12R HX  91
CLINTON        FAIR      81  75  83 CALM      30.13S HX  86
$$

ARZ036-201500-
EAST ARKANSAS

CITY           SKY/WX    TMP DP  RH WIND       PRES   REMARKS
WEST MEMPHIS   SUNNY     86  77  74 SW5       30.11S HX  97
$$

ARZ050-053-066-070-073-201500-
SOUTHWEST ARKANSAS

CITY           SKY/WX    TMP DP  RH WIND       PRES   REMARKS
ARKADELPHIA    FAIR      82  78  88 CALM      30.13S HX  91
CAMDEN         SUNNY     84  75  74 CALM      30.12R HX  92
TEXARKANA      SUNNY     85  76  74 SW7       30.13R HX  94
EL DORADO      SUNNY     85  77  77 CALM      30.13S HX  95
DE QUEEN       SUNNY     82  77  84 CALM      30.11S HX  90
$$

ARZ056-057-069-201500-
SOUTHEAST ARKANSAS

CITY           SKY/WX    TMP DP  RH WIND       PRES   REMARKS
PINE BLUFF     SUNNY     85  76  74 SW5       30.12F HX  94
STUTTGART      SUNNY     88  66  48 SW9       30.13S HX  90
MONTICELLO     SUNNY     88  75  65 SW3       30.12S HX  97

$$





USA.gov is the U.S. government's official web portal to all federal, state and local government web resources and services.